Terug naar catalogus

STARLINK-34045

ActiefCommunicatieVLEO
NORAD 63979·PAYLOAD·🇺🇸 United States

Gelanceerd May 13, 2025 vanaf Cape Canaveral Space Force Station

Loading…

Volgende Passages (komende 24 uur)

TLE

VersSource: CelesTrak SupGP

Epoch: Sep 15, 2026, 03:14 UTC

1 63979C 25099AD  26258.13520833 -.00008401  00000+0 -30431-3 0  2583
2 63979  42.9994 182.7445 0000880 276.2565 342.2498 15.27578807    16

Volg STARLINK-34045 in realtime met AllMySat

Download on the App Store